TimeEST,TemperatureF,Dew PointF,Humidity,Sea Level PressureIn,VisibilityMPH,Wind Direction,Wind SpeedMPH,Gust SpeedMPH,PrecipitationIn,Events,Conditions,WindDirDegrees,DateUTC
12:54 AM,32.0,27.0,82,30.25,10.0,East,9.2,-,N/A,,Partly Cloudy,100,2012-12-06 05:54:00
1:54 AM,30.9,26.1,82,30.23,10.0,East,6.9,-,N/A,,Partly Cloudy,100,2012-12-06 06:54:00
2:54 AM,30.0,26.1,85,30.23,10.0,ESE,8.1,-,N/A,,Partly Cloudy,110,2012-12-06 07:54:00
3:54 AM,30.0,26.1,85,30.22,10.0,ESE,5.8,-,N/A,,Mostly Cloudy,110,2012-12-06 08:54:00
4:54 AM,30.0,26.1,85,30.22,10.0,ESE,6.9,-,N/A,,Scattered Clouds,110,2012-12-06 09:54:00
5:54 AM,28.9,26.1,89,30.19,10.0,East,4.6,-,N/A,,Scattered Clouds,100,2012-12-06 10:54:00
6:54 AM,28.9,26.1,89,30.20,10.0,East,4.6,-,N/A,,Mostly Cloudy,100,2012-12-06 11:54:00
7:54 AM,28.9,26.1,89,30.19,10.0,ESE,6.9,-,N/A,,Mostly Cloudy,110,2012-12-06 12:54:00
8:54 AM,30.9,27.0,85,30.18,10.0,ESE,8.1,-,N/A,,Mostly Cloudy,120,2012-12-06 13:54:00
9:54 AM,33.8,28.4,81,30.15,10.0,SE,9.2,-,N/A,,Mostly Cloudy,130,2012-12-06 14:54:00
10:54 AM,37.0,30.9,79,30.16,10.0,SE,8.1,-,N/A,,Mostly Cloudy,140,2012-12-06 15:54:00
11:54 AM,39.9,33.1,77,30.13,10.0,SSE,8.1,-,N/A,,Overcast,150,2012-12-06 16:54:00
12:54 PM,42.1,34.0,73,30.07,10.0,ESE,6.9,-,N/A,,Overcast,120,2012-12-06 17:54:00
1:54 PM,44.1,35.1,71,30.04,10.0,SE,9.2,-,N/A,,Overcast,140,2012-12-06 18:54:00
2:54 PM,45.0,36.0,71,30.03,10.0,SE,6.9,-,N/A,,Overcast,130,2012-12-06 19:54:00
3:54 PM,46.0,36.0,68,30.02,10.0,SSE,5.8,-,N/A,,Overcast,150,2012-12-06 20:54:00
4:54 PM,46.0,36.0,68,30.01,10.0,ESE,4.6,-,N/A,,Overcast,120,2012-12-06 21:54:00
5:54 PM,46.0,37.0,71,30.01,10.0,ESE,5.8,-,N/A,,Overcast,120,2012-12-06 22:54:00
6:54 PM,46.9,37.0,68,30.00,10.0,SE,6.9,-,N/A,,Overcast,140,2012-12-06 23:54:00
7:54 PM,46.0,37.0,71,29.99,10.0,SSE,9.2,-,N/A,,Overcast,150,2012-12-07 00:54:00
8:54 PM,46.4,37.4,71,29.97,10.0,South,6.9,-,N/A,,Overcast,170,2012-12-07 01:54:00
9:24 PM,46.4,37.4,71,29.98,10.0,South,5.8,-,N/A,,Overcast,190,2012-12-07 02:24:00
9:54 PM,46.0,37.9,73,29.99,10.0,South,5.8,-,N/A,,Overcast,180,2012-12-07 02:54:00
10:41 PM,46.4,37.4,71,29.98,10.0,South,5.8,-,N/A,,Overcast,180,2012-12-07 03:41:00
10:54 PM,45.0,37.9,76,29.99,10.0,South,3.5,-,N/A,,Overcast,170,2012-12-07 03:54:00
11:54 PM,45.0,37.9,76,29.97,10.0,South,5.8,-,N/A,,Overcast,190,2012-12-07 04:54:00